[[{"header":{"parameterUnit":"m.s-1","parameterCategory":1,"la1":30.2991,"la2":30.254,"lo1":-89.0895,"lo2":-89.0444,"dy":0.0017,"dx":0.0017,"nx":28,"ny":28,"refTime":"2023-09-17T09:00:00:Z","depth":0,"parameterNumber":2,"parameterNumberName":"U-component_of_WINDS"},"data":[0,0,0,0,0,0,0,0,0,0,0,0,0,0,0,0,0,0,0,0,0,0,0,0,0,0,0,0,0,0,0,0,0,0,0,0,0,0,0,0,0,0,0,0,0,0,0,0,0,0,0,0,0,0,0,0,0,0,1.0744,1.0744,0,1.0775,1.0775,1.0775,1.076,1.0759,1.0758,1.0757,1.0791,1.0792,1.0794,0,0,0,0,0,0,0,0,0,0,0,0,0,1.0675,1.0676,1.0744,1.0744,1.0744,1.0774,1.0775,1.0775,1.076,1.0759,1.0758,1.0757,1.079,1.0792,1.0794,0,0,0,0,0,0,0,0,0,0,0,0,0,1.0705,1.0677,1.0744,1.074,1.074,1.0774,1.0775,1.0775,1.076,1.0759,1.0758,1.0756,1.079,1.0792,1.0794,1.0834,0,0,1.0802,1.0803,0,0,0,0,0,0,0,0,1.0704,1.0708,1.074,1.0741,1.0741,1.0762,1.0763,1.0795,1.076,1.0753,1.0757,1.0756,1.0782,1.0785,1.0794,1.0836,1.0837,1.0802,1.0804,1.0805,1.0806,0,0,0,0,0,0,0,1.0701,1.0706,1.0756,1.0741,1.0741,1.0738,1.0741,1.0769,1.0774,1.0753,1.0752,1.0756,1.0782,1.0792,1.0795,1.0838,1.0802,1.0804,1.0806,1.0807,1.0917,1.0918,0,0,0,0,0,0,1.0699,1.0705,1.0755,1.0757,1.0719,1.0741,1.0744,1.0756,1.0774,1.0775,1.0757,1.0755,1.0788,1.0792,1.0796,1.0845,1.0805,1.0807,1.0809,1.0915,1.0917,1.0919,0,0,0,0,0,0,1.0698,1.0704,1.0754,1.0731,1.0737,1.0743,1.0757,1.0758,1.0767,1.0776,1.0778,1.0765,1.0787,1.0792,1.0825,1.0846,1.0808,1.081,1.0914,1.0916,1.0918,1.0944,0,0,0,0,0,0,1.0696,1.0703,1.0717,1.0731,1.0738,1.0782,1.0758,1.0759,1.0771,1.0769,1.0785,1.0786,1.0786,1.0822,1.0828,1.0849,1.0812,1.0912,1.0915,1.0917,1.0941,1.0946,1.0951,0,0,0,0,0,1.0693,1.0723,1.0718,1.0724,1.0756,1.0783,1.0787,1.0786,1.0773,1.0788,1.0794,1.0786,1.0843,1.0825,1.0832,1.0854,1.0911,1.0914,1.0917,1.0939,1.0945,1.0951,0,0,0,0,0,0,1.0712,1.0725,1.0719,1.0754,1.0768,1.078,1.0799,1.0793,1.0811,1.0808,1.0807,1.0811,1.0846,1.0853,1.0833,1.0895,1.0875,1.0879,1.0889,1.0895,1.09,1.0898,1.0814,0,0,0,0,0,1.072,1.074,1.0751,1.0781,1.0788,1.0792,1.0804,1.0803,1.0817,1.0822,1.0831,1.0846,1.0868,1.0882,1.0902,1.0942,1.0946,1.0961,1.0966,1.097,1.0974,1.0999,1.1006,1.0929,1.0929,1.0929,0,0,1.0737,1.0747,1.076,1.0785,1.0795,1.0817,1.0797,1.0821,1.0838,1.0826,1.0858,1.0866,1.0882,1.092,1.0937,1.0927,1.0996,1.0974,1.0977,1.0979,1.1003,1.101,1.1016,1.0932,1.0931,1.0931,0,0,1.078,1.0788,1.0815,1.0826,1.0842,1.0845,1.0852,1.0866,1.0871,1.0903,1.0895,1.0916,1.0952,1.0965,1.0976,1.1027,1.102,1.1034,1.106,1.1084,1.109,1.1095,1.1116,1.1123,1.1038,1.1038,1.1038,0,1.08,1.0832,1.083,1.0855,1.0868,1.0858,1.0887,1.0897,1.0919,1.0929,1.0917,1.0965,1.0975,1.1016,1.1029,1.1038,1.1047,1.1032,1.1089,1.1095,1.11,1.1119,1.1126,1.1039,1.1039,1.1039,1.1039,0,1.0856,1.0879,1.0899,1.0921,1.0935,1.0962,1.0966,1.0981,1.0979,1.0984,1.1018,1.1031,1.1054,1.1064,1.1062,1.1106,1.11,1.1089,1.1069,1.1109,1.1127,1.1134,1.1042,1.1041,1.1041,1.104,0,0,1.0911,1.0933,1.094,1.0951,1.0969,1.0987,1.1014,1.1037,1.1051,1.1067,1.1092,1.1124,1.1114,1.1127,1.1127,1.1147,1.119,1.1134,1.1135,1.1146,1.1242,1.1251,1.126,1.1185,1.1186,1.1188,1.1241,0,1.0957,1.1004,1.1004,1.1048,1.1071,1.1063,1.1087,1.1101,1.1107,1.1128,1.1135,1.1159,1.1143,1.1152,1.1172,1.118,1.1209,1.1176,1.121,1.1211,1.1207,1.1269,1.1278,1.1328,1.1248,1.1249,1.125,0,1.1016,1.1034,1.1081,1.1097,1.1107,1.1128,1.1151,1.117,1.1187,1.119,1.1206,1.1203,1.1233,1.1211,1.1254,1.1231,1.1245,1.1252,1.1254,1.1258,1.1234,1.1276,1.1344,1.1352,1.1261,1.126,1.1259,0,1.1054,1.109,1.1123,1.1132,1.1152,1.1168,1.1177,1.1193,1.1207,1.1227,1.1237,1.126,1.1273,1.1292,1.1296,1.128,1.134,1.1318,1.1345,1.1345,1.1358,1.1358,1.1431,1.1365,1.1365,1.1365,1.1365,0,1.1105,1.1135,1.1141,1.1161,1.1194,1.1195,1.1228,1.1236,1.1251,1.1274,1.1269,1.1291,1.1294,1.1318,1.1321,1.1357,1.1363,1.1368,1.1368,1.1369,1.1369,1.1379,1.1376,1.1367,1.1366,1.1366,1.1365,0,1.1154,1.1158,1.1194,1.121,1.1215,1.1239,1.1254,1.1275,1.128,1.131,1.1317,1.1327,1.1354,1.136,1.1393,1.1395,1.1439,1.1435,1.1433,1.1433,1.1461,1.1459,1.1544,1.1556,1.1481,1.1481,1.1482,0,1.1187,1.1209,1.1228,1.1243,1.1253,1.1277,1.1292,1.1295,1.1311,1.1334,1.1352,1.1379,1.1401,1.1446,1.1457,1.1482,1.1481,1.1509,1.1484,1.1485,1.1483,1.1483,1.1486,1.1514,1.1515,1.1515,1.1516,0,1.1246,1.1248,1.127,1.1293,1.1311,1.133,1.1348,1.136,1.1366,1.1385,1.1413,1.143,1.1464,1.1492,1.1518,1.1529,1.1524,1.1523,1.1531,1.1533,1.1531,1.1535,1.1448,1.1522,1.1521,1.1521,1.152,1.152,1.1289,1.131,1.1327,1.1352,1.1366,1.1383,1.1404,1.1413,1.1436,1.1464,1.1464,1.1495,1.1514,1.1549,1.1562,1.1587,1.1579,1.159,1.1593,1.1596,1.16,1.1526,1.1592,1.1592,1.1592,1.1591,1.1591,0,1.135,1.1361,1.1384,1.1409,1.143,1.1423,1.1443,1.1461,1.1488,1.1506,1.1528,1.1562,1.1589,1.1603,1.1631,1.1649,1.1648,1.1656,1.1656,1.1659,1.1604,1.1596,1.1657,1.1657,1.1657,1.1657,1.1657,1.1657,1.1384,1.1419,1.1424,1.1466,1.1477,1.1508,1.152,1.1537,1.1551,1.1589,1.1612,1.162,1.1637,1.1666,1.1692,1.1696,1.1707,1.1717,1.172,1.1669,1.1662,1.1656,1.1648,1.1719,1.1719,1.1772,1.1773,1.1773]},{"header":{"parameterUnit":"m.s-1","parameterCategory":1,"la1":30.2991,"la2":30.254,"lo1":-89.0895,"lo2":-89.0444,"dy":0.0017,"dx":0.0017,"nx":28,"ny":28,"refTime":"2023-09-17T09:00:00:Z","depth":0,"parameterNumber":3,"parameterNumberName":"V-component_of_WINDS"},"data":[0,0,0,0,0,0,0,0,0,0,0,0,0,0,0,0,0,0,0,0,0,0,0,0,0,0,0,0,0,0,0,0,0,0,0,0,0,0,0,0,0,0,0,0,0,0,0,0,0,0,0,0,0,0,0,0,0,0,-3.8928,-3.8928,0,-3.8867,-3.8866,-3.8866,-3.8863,-3.8864,-3.8865,-3.8866,-3.8798,-3.8795,-3.8793,0,0,0,0,0,0,0,0,0,0,0,0,0,-3.904,-3.9038,-3.8928,-3.8928,-3.8927,-3.8867,-3.8866,-3.8866,-3.8863,-3.8864,-3.8865,-3.8866,-3.8799,-3.8796,-3.8793,0,0,0,0,0,0,0,0,0,0,0,0,0,-3.8986,-3.9038,-3.8929,-3.8919,-3.8917,-3.8867,-3.8866,-3.8865,-3.8863,-3.8864,-3.8865,-3.8866,-3.88,-3.8796,-3.8792,-3.8747,0,0,-3.8781,-3.8779,0,0,0,0,0,0,0,0,-3.899,-3.8982,-3.8921,-3.8919,-3.8918,-3.8874,-3.8881,-3.8825,-3.8863,-3.8883,-3.8866,-3.8867,-3.8822,-3.8817,-3.8802,-3.8744,-3.8741,-3.8781,-3.8778,-3.8777,-3.8776,0,0,0,0,0,0,0,-3.8993,-3.8985,-3.8904,-3.892,-3.8918,-3.8916,-3.891,-3.8871,-3.8847,-3.8882,-3.8881,-3.8874,-3.8821,-3.8806,-3.8801,-3.874,-3.8781,-3.8777,-3.8775,-3.8774,-3.8643,-3.8642,0,0,0,0,0,0,-3.8999,-3.8988,-3.8906,-3.8902,-3.8957,-3.8913,-3.8906,-3.8887,-3.8847,-3.8843,-3.8874,-3.8875,-3.8812,-3.8805,-3.8798,-3.8744,-3.8777,-3.8773,-3.8771,-3.8644,-3.8643,-3.8641,0,0,0,0,0,0,-3.9002,-3.8992,-3.8908,-3.8945,-3.8934,-3.891,-3.8889,-3.8885,-3.887,-3.8841,-3.8837,-3.8863,-3.8812,-3.8804,-3.8761,-3.8741,-3.8772,-3.8768,-3.8646,-3.8644,-3.8642,-3.8634,0,0,0,0,0,0,-3.9005,-3.8993,-3.8976,-3.8945,-3.8932,-3.8872,-3.8887,-3.8883,-3.8864,-3.8865,-3.883,-3.8825,-3.8813,-3.8766,-3.8757,-3.8737,-3.8765,-3.8647,-3.8645,-3.8643,-3.8636,-3.8632,-3.8629,0,0,0,0,0,-3.9009,-3.8975,-3.8975,-3.8965,-3.8911,-3.8871,-3.8864,-3.8852,-3.8862,-3.8845,-3.8827,-3.8826,-3.8745,-3.8762,-3.8751,-3.873,-3.8648,-3.8645,-3.8643,-3.8637,-3.8633,-3.8629,0,0,0,0,0,0,-3.9001,-3.897,-3.897,-3.8925,-3.8901,-3.8871,-3.8848,-3.8847,-3.8818,-3.882,-3.8805,-3.8797,-3.8755,-3.8738,-3.8757,-3.8685,-3.8698,-3.8693,-3.8697,-3.8693,-3.8689,-3.8694,-3.8762,0,0,0,0,0,-3.8995,-3.8967,-3.894,-3.8903,-3.8891,-3.8872,-3.8854,-3.8847,-3.8821,-3.8811,-3.8789,-3.8763,-3.8732,-3.8711,-3.8681,-3.8634,-3.8626,-3.8614,-3.861,-3.8608,-3.8603,-3.8579,-3.8573,-3.8632,-3.8632,-3.8632,0,0,-3.898,-3.896,-3.8942,-3.8901,-3.8882,-3.8852,-3.8863,-3.8831,-3.8809,-3.8805,-3.8764,-3.8748,-3.8717,-3.8672,-3.8651,-3.8657,-3.8586,-3.8604,-3.8602,-3.8599,-3.8575,-3.857,-3.8565,-3.863,-3.8631,-3.8631,0,0,-3.8939,-3.892,-3.8888,-3.8869,-3.8841,-3.8829,-3.8821,-3.8792,-3.8782,-3.8741,-3.8738,-3.8711,-3.8657,-3.8636,-3.8618,-3.8573,-3.8571,-3.8563,-3.8544,-3.852,-3.8516,-3.8512,-3.8496,-3.849,-3.8559,-3.8559,-3.8559,0,-3.8923,-3.888,-3.8871,-3.8839,-3.8822,-3.882,-3.8787,-3.8768,-3.8731,-3.8718,-3.8726,-3.866,-3.8639,-3.859,-3.858,-3.8565,-3.8556,-3.8566,-3.8518,-3.8513,-3.8509,-3.8494,-3.8488,-3.8558,-3.8558,-3.8558,-3.8558,0,-3.8863,-3.8833,-3.881,-3.8777,-3.8757,-3.8724,-3.871,-3.869,-3.8686,-3.8673,-3.8632,-3.8608,-3.8573,-3.8561,-3.8555,-3.8512,-3.8516,-3.8521,-3.8533,-3.8503,-3.8488,-3.8482,-3.8557,-3.8557,-3.8557,-3.8558,0,0,-3.8813,-3.8777,-3.8769,-3.8755,-3.8725,-3.8701,-3.8669,-3.8638,-3.8622,-3.8596,-3.8569,-3.8526,-3.8531,-3.851,-3.8503,-3.8482,-3.8448,-3.8489,-3.8488,-3.8483,-3.84,-3.8397,-3.839,-3.8448,-3.8446,-3.8446,-3.8403,0,-3.8768,-3.8713,-3.8705,-3.8657,-3.8629,-3.8629,-3.8601,-3.858,-3.8567,-3.8542,-3.8528,-3.8497,-3.8506,-3.8494,-3.8473,-3.8457,-3.8431,-3.846,-3.8422,-3.842,-3.8429,-3.8382,-3.8378,-3.8339,-3.8397,-3.8396,-3.8395,0,-3.8708,-3.8684,-3.8634,-3.861,-3.8598,-3.8574,-3.8545,-3.8521,-3.8497,-3.849,-3.8469,-3.8465,-3.8431,-3.8447,-3.8401,-3.8421,-3.8405,-3.8395,-3.8393,-3.8388,-3.8406,-3.8377,-3.8326,-3.832,-3.8386,-3.8387,-3.8387,0,-3.8677,-3.8632,-3.8597,-3.8584,-3.8555,-3.8539,-3.8525,-3.8503,-3.8485,-3.846,-3.8449,-3.8419,-3.8403,-3.838,-3.8368,-3.838,-3.8324,-3.8338,-3.8316,-3.8317,-3.8303,-3.8304,-3.825,-3.8294,-3.8294,-3.8294,-3.8294,0,-3.8628,-3.8597,-3.8583,-3.8561,-3.8527,-3.8518,-3.8484,-3.8471,-3.8451,-3.8426,-3.8424,-3.84,-3.8386,-3.836,-3.835,-3.8315,-3.8307,-3.83,-3.8298,-3.83,-3.8301,-3.8289,-3.8291,-3.8292,-3.8293,-3.8293,-3.8293,0,-3.8587,-3.8576,-3.8538,-3.8515,-3.8508,-3.8484,-3.8464,-3.8443,-3.8432,-3.8401,-3.8393,-3.8375,-3.8345,-3.8331,-3.8293,-3.8287,-3.8246,-3.8246,-3.8255,-3.8254,-3.8234,-3.8236,-3.8169,-3.816,-3.821,-3.821,-3.821,0,-3.8556,-3.8533,-3.8509,-3.8493,-3.848,-3.8454,-3.8438,-3.8428,-3.8411,-3.8383,-3.8365,-3.8336,-3.8312,-3.8264,-3.8247,-3.8219,-3.8217,-3.8196,-3.8213,-3.8217,-3.8217,-3.8219,-3.8217,-3.8192,-3.8192,-3.8192,-3.8191,0,-3.8503,-3.85,-3.8476,-3.8451,-3.8432,-3.8411,-3.8391,-3.8378,-3.8366,-3.8346,-3.8317,-3.8299,-3.8262,-3.8233,-3.8204,-3.8189,-3.8188,-3.8187,-3.818,-3.8182,-3.8189,-3.8186,-3.8247,-3.8188,-3.8188,-3.8188,-3.8188,-3.8189,-3.8466,-3.8446,-3.8427,-3.8401,-3.8386,-3.8368,-3.8347,-3.8335,-3.8311,-3.8282,-3.8278,-3.8247,-3.8225,-3.8187,-3.8172,-3.8147,-3.8152,-3.8142,-3.814,-3.8138,-3.8137,-3.8194,-3.8141,-3.8142,-3.8142,-3.8142,-3.8142,0,-3.8413,-3.8401,-3.8378,-3.8352,-3.8332,-3.8335,-3.8314,-3.8297,-3.827,-3.8251,-3.8228,-3.8195,-3.8168,-3.815,-3.8122,-3.8106,-3.8105,-3.8099,-3.81,-3.8097,-3.8134,-3.8142,-3.8101,-3.8101,-3.8101,-3.8101,-3.8101,-3.8101,-3.8383,-3.835,-3.8345,-3.8305,-3.8293,-3.8264,-3.8252,-3.8235,-3.822,-3.8185,-3.8163,-3.8152,-3.8134,-3.8105,-3.808,-3.8076,-3.8066,-3.806,-3.8055,-3.809,-3.8094,-3.8098,-3.8106,-3.8057,-3.8057,-3.802,-3.802,-3.802]}]]